Wind_Speed
4 4 5 6 8 8 7 7 5 4 4 4 4 5 6 6 7 7 8 9 9 10 10 11 11 11 11 11 11 11 11 11 12 12 12 11 11 11 11 11 11 12 12
5 5 6 6 7 8 8 7 6 5 5 5 5 5 6 6 6 7 7 8 8 9 9 9 10 10 10 10 10 10 10 11 11 11 11 11 11 11 12 12 12 12 13
6 5 6 7 7 7 7 7 6 6 5 5 5 5 5 5 5 5 6 6 7 7 7 8 8 8 8 8 9 9 9 10 10 10 10 11 11 12 12 13 13 13 13
6 6 6 7 7 7 7 7 6 6 5 5 5 4 4 4 4 4 4 4 5 6 6 6 6 7 7 8 8 9 9 9 9 9 10 10 11 11 12 13 13 13 13
7 6 6 7 6 6 6 6 6 6 5 5 5 4 4 3 3 3 3 3 4 5 5 6 6 6 6 7 8 8 9 9 9 9 9 10 11 11 11 12 12 12 12
6 7 7 6 6 6 6 6 6 6 5 5 4 4 3 2 2 2 2 3 4 5 5 6 6 6 6 7 8 9 9 9 9 9 10 10 10 11 11 11 11 12 12
5 6 6 5 5 6 6 6 6 6 5 5 4 3 3 2 2 2 2 3 4 5 5 6 7 7 7 8 8 10 10 10 10 10 10 11 11 11 11 11 12 12 12
5 5 5 4 4 5 6 6 6 6 6 5 5 4 3 2 1 1 2 3 4 5 6 7 8 8 8 8 9 10 11 11 11 11 11 11 12 12 12 12 13 13 13
4 4 4 4 5 5 6 6 6 6 6 6 5 4 4 3 2 2 2 3 4 5 7 8 9 9 9 9 10 10 11 12 12 12 12 12 12 13 13 14 14 13 14
3 3 4 5 6 7 7 7 7 7 7 7 6 5 5 4 3 3 3 4 5 6 8 9 10 10 10 10 10 11 11 12 13 13 13 13 14 14 14 15 15 15 15
3 4 5 6 7 8 8 8 9 8 8 7 7 6 5 5 4 4 4 5 6 7 8 9 11 11 11 12 12 12 12 13 14 15 15 15 15 16 16 17 17 17 18
3 5 6 7 8 8 9 10 10 9 8 8 7 6 6 6 6 5 5 6 7 8 9 10 11 12 12 13 13 13 13 13 14 16 17 17 17 17 18 18 19 19 20
4 5 7 8 8 9 10 10 10 10 9 8 8 7 7 7 7 6 7 8 9 9 10 10 11 13 13 14 14 14 14 14 15 16 17 18 18 19 19 20 21 21 22
4 6 8 8 9 9 9 10 10 10 9 9 9 8 9 9 8 8 8 9 10 11 11 12 13 13 14 14 14 15 14 14 15 16 17 18 19 20 20 21 22 23 23
5 7 8 9 10 10 10 10 10 10 10 10 10 10 10 10 9 9 10 11 12 13 13 13 14 14 14 15 15 16 15 15 15 17 18 19 19 20 21 22 23 24 25
7 8 9 10 11 12 12 11 11 11 11 11 11 11 11 11 11 12 12 13 14 15 15 16 16 16 16 16 17 17 17 17 17 17 18 19 19 20 21 22 23 24 25
8 9 11 12 13 14 13 13 13 13 13 13 13 13 14 14 14 15 16 16 16 17 18 19 19 19 19 18 18 18 18 19 19 19 19 20 20 20 21 22 23 24 25
11 11 13 14 16 16 16 15 15 15 15 15 15 15 16 16 17 18 19 20 20 20 21 21 22 21 21 21 21 21 21 21 21 21 21 22 22 22 23 24 25 26 27
13 14 15 17 18 19 19 19 18 18 18 18 18 19 19 20 21 22 22 24 24 24 25 24 24 24 24 24 24 25 24 23 24 24 25 25 26 26 27 27 28 29 30
17 17 18 19 21 22 22 22 22 21 22 22 23 23 23 24 25 26 25 26 28 29 29 29 28 28 27 27 27 27 26 27 27 27 28 28 29 29 30 31 32 32 33
19 20 21 22 23 24 25 24 25 25 25 25 26 27 27 28 28 28 29 30 31 31 32 32 31 31 30 29 29 29 29 29 30 31 32 32 33 33 34 35 36 36 37
22 21 21 22 24 25 25 26 27 29 29 29 30 29 31 31 32 33 33 34 34 33 33 32 32 33 31 31 32 33 33 32 33 34 35 36 37 37 38 39 40 41 42
23 23 21 22 25 26 27 29 29 31 31 32 32 32 33 34 33 34 34 35 37 37 35 34 35 35 33 34 35 36 36 35 37 38 39 39 40 41 43 44 45 46 47
24 23 23 23 25 26 28 30 32 33 33 34 35 34 33 33 34 35 35 36 37 34 34 35 36 36 36 38 39 38 38 39 39 40 41 43 44 45 46 48 49 51 52
25 24 25 26 27 28 31 32 34 36 36 37 37 37 35 34 36 38 37 38 39 37 38 38 39 40 40 41 40 40 39 41 43 44 45 47 48 49 50 51 53 55 56
27 27 29 28 28 30 31 33 36 37 38 39 40 39 38 38 39 40 40 40 40 41 41 42 42 43 43 43 43 43 44 46 47 48 50 51 52 54 55 56 58 59 60
Wind_Direction
297 285 274 264 260 257 252 246 243 248 255 266 276 281 289 296 301 307 311 315 317 319 319 319 318 317 317 317 316 315 314 314 311 308 303 297 290 284 281 277 273 270 267
296 286 274 264 255 250 246 246 250 257 264 266 268 274 280 286 290 297 304 310 314 317 318 318 318 319 320 321 321 319 318 316 312 308 304 298 292 287 283 280 276 273 270
293 285 273 258 250 244 240 245 252 255 261 262 265 270 276 280 287 295 303 308 314 317 320 322 324 325 327 326 324 321 317 313 309 306 303 299 294 290 286 282 276 274 273
291 280 268 252 244 240 239 244 247 250 255 257 260 265 271 279 287 295 305 313 318 321 324 326 328 328 328 327 324 320 316 311 306 303 300 297 295 293 288 283 277 275 275
286 271 261 247 239 236 238 239 238 241 245 244 249 257 266 277 290 305 319 322 321 323 325 327 327 325 325 324 321 316 312 307 303 301 297 294 293 294 291 285 278 277 278
283 263 254 244 235 230 226 224 224 227 229 230 238 247 254 267 288 305 317 320 321 320 320 320 319 320 322 322 317 311 307 304 302 299 296 293 291 291 292 288 282 281 280
276 259 250 237 225 216 213 210 211 215 217 218 221 227 232 241 263 293 315 320 320 318 316 316 317 318 320 320 317 310 305 303 301 297 295 293 291 289 289 289 285 283 283
267 251 240 224 211 203 202 203 205 205 207 208 206 207 215 219 234 279 306 314 313 312 312 314 316 317 317 318 314 307 302 301 299 296 293 292 291 289 288 288 284 283 283
251 234 225 208 196 191 191 189 188 188 189 190 190 193 199 204 215 243 274 291 296 302 306 309 310 312 314 315 313 306 298 297 294 292 291 290 286 285 283 283 281 281 281
234 209 196 188 181 178 177 176 178 179 178 178 179 184 190 198 213 237 264 279 288 299 303 304 305 306 307 307 308 306 299 294 291 290 289 287 282 279 278 279 278 277 278
227 195 179 173 170 172 173 174 175 174 174 177 180 185 195 210 228 249 265 276 286 294 298 301 305 306 304 304 306 303 298 294 290 288 287 285 282 279 276 276 276 275 275
209 185 175 170 170 173 176 176 176 175 178 184 189 198 212 227 241 257 268 279 285 290 294 300 304 304 306 307 306 303 298 294 292 288 285 284 282 279 277 275 273 273 274
206 186 179 176 179 182 181 181 182 184 188 193 199 210 223 234 247 261 266 273 280 284 288 295 301 305 305 306 306 305 300 294 290 289 286 283 282 280 278 275 274 273 273
209 196 190 186 185 186 186 187 189 192 196 203 210 220 231 240 250 258 261 268 273 279 284 290 296 302 302 302 304 304 302 297 292 290 288 285 283 282 279 277 277 276 274
214 205 202 198 194 194 196 197 200 204 208 214 219 227 237 244 249 253 259 266 272 277 282 287 290 293 297 298 299 301 301 300 297 293 291 290 287 284 281 279 279 277 274
221 215 211 211 209 208 208 209 212 215 217 221 227 233 240 246 251 257 261 266 270 275 280 283 285 287 290 295 298 298 298 300 297 294 291 289 287 286 285 282 280 279 278
224 222 224 225 224 222 221 223 224 225 228 233 238 241 244 250 255 259 262 266 268 273 277 281 283 284 286 288 292 295 296 297 294 293 292 290 288 287 285 284 283 281 279
229 228 228 229 231 232 232 234 236 239 242 245 249 252 253 258 261 263 265 267 270 273 276 280 282 283 284 286 288 288 290 292 291 291 290 289 287 287 285 283 283 282 281
237 236 233 230 234 238 241 243 246 248 251 255 257 258 259 262 265 268 270 273 274 276 276 279 281 284 283 282 283 285 283 285 288 288 288 287 286 284 284 282 282 282 281
240 238 235 232 237 242 244 249 249 252 254 256 258 260 264 266 269 271 274 277 278 277 279 280 281 279 280 280 281 283 283 284 285 286 286 285 285 283 282 281 281 281 281
241 241 240 236 239 244 247 249 252 255 259 259 261 264 267 269 272 273 277 279 280 281 282 284 283 282 283 284 283 283 283 284 285 286 285 284 284 283 282 281 281 281 281
238 241 244 246 245 246 248 251 253 258 263 262 265 270 272 273 275 275 278 281 283 283 281 283 285 285 286 287 287 287 285 285 286 286 285 285 284 283 282 281 281 281 281
242 244 250 255 253 253 254 256 259 261 264 268 271 273 274 276 277 278 282 284 285 284 283 285 288 287 286 288 290 288 287 286 287 287 286 286 286 284 283 282 281 281 282
247 251 256 260 261 262 264 264 265 267 272 275 276 277 281 281 282 286 287 286 286 289 289 291 292 290 290 292 291 290 287 287 288 287 286 286 286 285 283 283 283 282 283
253 256 258 262 266 267 270 270 272 276 279 280 282 285 288 289 292 292 291 290 289 291 294 293 293 294 293 292 290 290 289 288 289 288 288 287 286 286 285 284 284 284 283
256 259 262 266 269 271 272 273 276 278 282 283 287 287 290 292 293 293 290 292 291 291 293 293 293 294 292 291 290 290 289 289 290 290 289 288 287 287 286 286 286 285 284
Height
5889 5889 5890 5890 5891 5892 5892 5894 5895 5896 5897 5898 5899 5899 5900 5900 5901 5901 5901 5902 5902 5902 5902 5902 5902 5901 5901 5901 5901 5900 5900 5900 5900 5899 5899 5899 5899 5899 5899 5899 5898 5898 5898
5888 5888 5889 5889 5890 5890 5891 5892 5893 5895 5896 5897 5898 5898 5899 5899 5900 5900 5900 5901 5901 5901 5901 5901 5900 5900 5900 5900 5899 5899 5899 5898 5898 5898 5897 5897 5897 5897 5897 5897 5897 5897 5897
5886 5886 5887 5888 5888 5889 5890 5891 5892 5893 5894 5895 5896 5897 5898 5898 5899 5899 5900 5900 5900 5900 5900 5899 5899 5899 5899 5898 5898 5898 5898 5897 5897 5896 5896 5896 5895 5895 5895 5895 5894 5894 5894
5885 5885 5886 5886 5887 5888 5889 5890 5891 5892 5893 5894 5894 5895 5896 5897 5898 5898 5898 5898 5898 5898 5898 5898 5898 5897 5897 5897 5897 5896 5896 5895 5895 5894 5894 5894 5893 5893 5893 5892 5892 5892 5892
5884 5884 5885 5885 5886 5886 5887 5888 5889 5891 5891 5892 5893 5894 5895 5896 5896 5897 5897 5897 5897 5897 5896 5896 5896 5896 5896 5896 5895 5895 5894 5894 5893 5893 5892 5892 5891 5891 5890 5890 5890 5890 5889
5883 5883 5884 5884 5884 5885 5886 5887 5888 5889 5890 5891 5892 5893 5894 5894 5895 5895 5895 5895 5895 5895 5895 5895 5895 5895 5895 5894 5894 5893 5892 5891 5891 5890 5890 5889 5889 5888 5888 5887 5887 5887 5887
5882 5883 5883 5883 5883 5884 5885 5886 5887 5888 5889 5890 5891 5892 5893 5893 5894 5894 5894 5894 5894 5893 5893 5893 5893 5893 5893 5893 5892 5891 5890 5889 5888 5888 5887 5887 5886 5886 5885 5885 5884 5884 5884
5881 5882 5882 5882 5882 5883 5884 5885 5886 5888 5889 5890 5890 5891 5892 5892 5893 5893 5893 5893 5893 5892 5892 5891 5891 5891 5891 5891 5890 5889 5887 5886 5886 5885 5884 5884 5883 5883 5882 5882 5882 5882 5882
5880 5880 5881 5881 5882 5883 5884 5885 5886 5887 5888 5889 5890 5890 5891 5892 5892 5892 5892 5892 5892 5891 5891 5890 5890 5890 5889 5889 5888 5886 5885 5884 5883 5882 5882 5881 5881 5880 5880 5879 5879 5879 5879
5879 5879 5880 5880 5881 5882 5884 5885 5886 5887 5888 5888 5889 5890 5890 5891 5891 5891 5891 5891 5891 5890 5890 5889 5888 5888 5887 5887 5886 5884 5883 5881 5880 5879 5879 5878 5878 5877 5877 5877 5877 5876 5877
5878 5878 5879 5880 5881 5882 5883 5884 5886 5887 5887 5888 5889 5889 5890 5890 5890 5891 5891 5890 5890 5889 5888 5888 5887 5886 5885 5884 5884 5882 5881 5879 5878 5877 5876 5875 5875 5874 5874 5873 5873 5873 5873
5878 5878 5879 5880 5881 5882 5883 5884 5885 5886 5887 5888 5888 5889 5889 5889 5890 5890 5890 5889 5889 5888 5887 5886 5885 5884 5883 5882 5881 5880 5878 5877 5875 5874 5873 5872 5871 5871 5870 5870 5870 5870 5870
5877 5878 5879 5880 5881 5882 5883 5884 5885 5885 5886 5887 5887 5888 5888 5888 5888 5888 5888 5888 5887 5886 5885 5884 5883 5882 5881 5880 5878 5877 5876 5874 5872 5871 5870 5869 5868 5867 5867 5866 5866 5866 5866
5876 5877 5878 5880 5881 5882 5883 5884 5884 5885 5885 5886 5886 5887 5887 5887 5887 5887 5886 5885 5885 5884 5883 5882 5881 5880 5878 5877 5876 5874 5872 5871 5870 5868 5866 5865 5865 5864 5863 5863 5863 5862 5862
5875 5877 5878 5879 5880 5881 5882 5883 5884 5884 5884 5885 5885 5885 5885 5885 5885 5885 5884 5883 5882 5881 5880 5879 5878 5877 5875 5874 5872 5871 5869 5868 5866 5865 5863 5862 5861 5860 5859 5859 5858 5858 5857
5874 5876 5877 5878 5879 5880 5881 5881 5882 5882 5882 5882 5883 5883 5883 5882 5882 5882 5881 5880 5879 5878 5877 5876 5875 5873 5872 5870 5869 5867 5866 5864 5863 5861 5860 5858 5857 5856 5855 5854 5853 5853 5852
5872 5874 5876 5877 5878 5879 5879 5880 5880 5880 5880 5880 5880 5880 5879 5879 5879 5878 5878 5877 5875 5874 5873 5872 5871 5870 5868 5867 5865 5864 5862 5861 5859 5857 5856 5854 5853 5852 5851 5850 5849 5847 5847
5870 5872 5873 5875 5876 5877 5877 5877 5878 5877 5877 5877 5877 5877 5876 5876 5875 5874 5873 5872 5871 5869 5868 5867 5866 5865 5864 5863 5861 5860 5858 5856 5855 5853 5851 5850 5849 5847 5846 5845 5843 5842 5841
5867 5869 5870 5872 5873 5874 5874 5874 5874 5874 5874 5873 5873 5872 5872 5871 5870 5869 5868 5867 5865 5864 5863 5862 5861 5860 5858 5857 5856 5854 5853 5851 5850 5848 5846 5845 5843 5842 5840 5838 5837 5835 5834
5863 5865 5867 5868 5870 5870 5870 5870 5870 5870 5869 5868 5867 5866 5866 5865 5864 5862 5861 5860 5859 5858 5856 5855 5854 5853 5851 5850 5849 5848 5846 5845 5844 5842 5840 5839 5837 5835 5833 5831 5829 5828 5826
5859 5861 5862 5863 5864 5864 5865 5865 5865 5864 5863 5862 5860 5860 5859 5858 5857 5856 5854 5853 5852 5850 5849 5848 5846 5845 5843 5842 5842 5840 5839 5838 5836 5835 5833 5831 5829 5827 5825 5823 5821 5819 5818
5855 5856 5857 5858 5858 5859 5859 5859 5859 5858 5857 5855 5854 5853 5852 5851 5850 5848 5847 5846 5844 5842 5841 5840 5838 5836 5835 5835 5834 5832 5831 5830 5828 5826 5824 5822 5820 5818 5816 5814 5812 5810 5808
5850 5850 5851 5852 5853 5853 5853 5852 5852 5852 5850 5848 5846 5845 5844 5843 5841 5840 5839 5838 5836 5834 5833 5831 5830 5829 5828 5827 5825 5824 5822 5820 5819 5817 5814 5812 5810 5808 5805 5803 5801 5798 5796
5845 5845 5846 5847 5848 5848 5847 5846 5845 5844 5843 5842 5840 5838 5836 5835 5834 5832 5831 5830 5828 5827 5825 5824 5822 5821 5820 5818 5816 5814 5812 5810 5809 5806 5804 5801 5799 5796 5794 5791 5788 5785 5783
5839 5839 5840 5841 5841 5841 5840 5840 5839 5838 5836 5835 5832 5831 5830 5828 5827 5825 5824 5822 5821 5820 5818 5816 5814 5813 5811 5809 5807 5804 5802 5799 5797 5795 5792 5790 5786 5784 5781 5778 5775 5772 5769
5833 5834 5834 5834 5834 5834 5833 5833 5832 5830 5828 5826 5824 5822 5822 5821 5819 5818 5816 5814 5813 5812 5809 5808 5806 5803 5801 5799 5796 5794 5791 5788 5785 5782 5779 5776 5773 5770 5766 5763 5760 5756 5753